Location: ????????
(55.0097°N, 38.5678°E)
Time: 04:04:28
(UTC+00:00)

Cosmos 2322 Rocket - Pass Details

Date: 14 April 2024
Orbit: 833 x 849 km, 71.0° (Epoch: 20 May)

Event Time Altitude Azimuth Distance (km) Brightness Sun altitude
Exits shadow 00:19:20 18° 261° (W) 1,935 3.6 -16.0°
Maximum altitude 00:22:56 37° 319° (NW) 1,279 3.2 -15.7°
Drops below altitude 10° 00:28:09 10° 27° (NNE) 2,456 5.8 -15.1°
Sets 00:30:47 0° 35° (NE) 3,393 7.0 -14.8°
